Date,TemperatureHighF,TemperatureAvgF,TemperatureLowF,DewpointHighF,DewpointAvgF,DewpointLowF,HumidityHigh,HumidityAvg,HumidityLow,PressureMaxIn,PressureMinIn,WindSpeedMaxMPH,WindSpeedAvgMPH,GustSpeedMaxMPH,PrecipitationSumIn
2014-2-26,-200,0,200,-100,-100,-100,0,0,100,29.81,29.64,0,-999,0,0.00
2014-2-27,-200,0,200,-100,-100,-100,0,0,100,29.75,29.60,0,-999,0,0.00
2014-2-28,-200,0,200,-100,-100,-100,0,0,100,29.77,29.60,0,-999,0,0.00
2014-3-1,40,0,40,32,-98,-100,73,1,73,29.79,29.68,4,-988,4,0.00
2014-3-2,-200,0,200,-100,-100,-100,0,0,100,29.86,29.69,0,-999,0,0.00
2014-3-3,19,0,9,8,-98,-100,92,2,92,30.03,29.80,0,-974,0,0.00
2014-3-4,-200,0,200,-100,-100,-100,0,0,100,29.98,29.79,0,-999,0,0.00
2014-3-5,-200,0,200,-100,-100,-100,0,0,100,29.87,29.78,0,-999,0,0.00
2014-3-6,-200,0,200,-100,-100,-100,0,0,100,29.84,29.68,0,-999,0,0.00
2014-3-7,-200,0,200,-100,-100,-100,0,0,100,29.70,29.60,0,-999,0,0.00
2014-3-8,-200,0,200,-100,-100,-100,0,0,100,29.89,29.64,0,-999,0,0.00
2014-3-9,-200,0,200,-100,-100,-100,0,0,100,29.97,29.73,0,-999,0,0.00
2014-3-10,-200,0,200,-100,-100,-100,0,0,100,29.74,29.44,0,-999,0,0.00
2014-3-11,71,43,45,54,2,-100,90,42,47,29.44,29.13,19,-320,19,0.00
2014-3-12,62,12,51,56,-70,-100,86,16,73,29.77,29.05,28,-804,28,0.00
2014-3-13,-200,0,200,-100,-100,-100,0,0,100,29.86,29.76,0,-999,0,0.00
2014-4-28,67,62,57,63,60,56,98,92,82,29.32,29.11,25,5,25,2.11
2014-4-29,63,49,50,57,29,-100,93,65,51,29.32,29.18,17,-130,17,0.00
2014-5-28,78,73,68,67,65,64,94,76,65,29.62,29.54,9,0,9,0.00
2014-5-29,78,68,65,67,58,-100,97,79,62,29.66,29.55,8,-45,8,0.00
2014-5-30,84,69,65,68,54,-100,96,71,51,29.70,29.60,9,-63,9,0.00
2014-5-31,85,72,66,69,59,-100,97,72,53,29.72,29.61,9,-45,9,0.00
2014-6-1,83,70,68,70,59,-100,95,79,62,29.70,29.61,16,-51,16,0.20
2014-6-2,77,67,66,70,59,-100,99,84,75,29.70,29.61,24,-46,24,4.80
2014-6-3,84,70,65,71,58,-100,100,78,61,29.69,29.51,10,-62,10,0.00
2014-6-4,83,70,66,71,58,-100,98,77,65,29.57,29.34,26,-59,26,2.24
2014-6-5,72,64,64,67,55,-100,99,85,82,29.55,29.41,13,-60,13,0.00
2014-6-6,80,66,64,69,53,-100,100,77,65,29.59,29.50,8,-80,8,0.00
2014-6-7,80,66,66,70,55,-100,97,80,65,29.61,29.41,15,-61,15,0.05
2014-6-8,74,64,64,63,51,-100,95,73,61,29.63,29.43,14,-61,14,0.00
2014-6-9,73,63,62,66,52,-100,97,80,73,29.58,29.40,11,-62,11,0.29
2014-6-10,74,60,62,67,48,-100,97,83,76,29.42,29.33,13,-92,13,0.11
2014-6-11,78,65,62,66,53,-100,98,76,59,29.45,29.32,14,-61,14,0.02
2014-6-12,80,69,61,65,56,-100,96,71,54,29.53,29.43,15,-44,15,0.00
2014-6-13,75,66,63,64,48,-100,98,61,35,29.66,29.50,19,-41,19,0.03
2014-6-14,77,63,53,59,43,-100,87,57,37,29.74,29.59,10,-65,10,0.00
2014-6-15,84,70,57,69,56,-100,91,70,56,29.68,29.54,21,-47,21,0.00
2014-6-16,88,76,68,70,60,-100,92,66,49,29.75,29.64,13,-43,15,0.00
2014-6-17,87,75,70,72,58,-100,90,66,54,29.72,29.62,12,-60,18,0.00
2014-6-18,88,75,69,72,59,-100,92,67,55,29.70,29.60,16,-60,16,0.00
2014-6-19,89,79,70,72,63,-100,92,65,52,29.75,29.62,12,-34,13,0.00
2014-6-20,80,66,71,70,48,-100,88,71,71,29.68,29.63,11,-116,11,0.00
2014-6-23,87,79,71,72,68,67,87,71,54,29.53,29.47,18,3,18,0.00
2014-6-24,79,68,69,71,58,-100,95,81,74,29.58,29.49,13,-61,13,0.35
2014-6-25,85,72,65,68,57,-100,97,68,47,29.66,29.57,10,-48,10,0.00
2014-6-26,85,70,67,70,59,-100,96,78,54,29.66,29.58,21,-44,21,0.15
2014-6-27,80,66,66,71,56,-100,97,83,69,29.68,29.61,22,-68,22,0.10
2014-6-28,83,69,66,71,54,-100,97,74,64,29.73,29.64,18,-78,18,0.00
2014-6-29,74,69,65,67,64,-100,96,87,78,29.75,29.62,13,-12,13,0.04
2014-6-30,88,74,68,75,63,-100,97,76,59,29.63,29.44,16,-46,16,0.00
2014-7-1,88,73,66,74,62,-100,97,78,59,29.57,29.39,36,-46,36,0.65
2014-7-2,80,66,67,69,47,-100,100,67,55,29.67,29.55,14,-99,14,0.00
2014-7-3,70,62,60,58,46,-100,92,68,62,29.83,29.67,14,-60,14,0.00
2014-7-4,76,65,58,60,49,-100,96,66,47,29.91,29.82,13,-47,13,0.00
2014-7-5,78,66,54,60,49,-100,93,63,44,29.89,29.72,8,-48,8,0.00
2014-7-6,82,69,58,63,54,-100,91,66,45,29.73,29.58,14,-26,14,0.00
2014-7-7,87,72,65,73,58,-100,81,70,59,29.59,29.43,17,-50,19,0.00
2014-7-8,81,70,65,70,54,-100,95,70,64,29.57,29.40,26,-77,26,0.00
2014-7-9,83,70,66,67,52,-100,96,63,41,29.64,29.55,12,-62,12,0.00
2014-7-10,81,70,66,66,61,60,92,69,56,29.74,29.64,10,1,10,0.00
2014-7-11,86,73,64,68,62,62,95,68,47,29.80,29.71,7,0,7,0.00
2014-7-12,87,73,68,73,65,64,93,72,58,29.79,29.65,10,1,10,0.00
2014-7-13,89,78,73,74,68,67,87,70,58,29.67,29.54,19,3,19,0.00
2014-7-14,82,68,68,73,63,66,95,74,70,29.59,29.46,11,2,18,0.07
2014-7-15,73,63,62,66,51,47,94,61,44,29.63,29.53,22,5,22,0.00
2014-7-16,73,62,56,56,51,51,87,64,49,29.69,29.62,12,1,12,0.00
2014-7-17,76,64,56,59,53,51,94,65,44,29.73,29.65,9,1,9,0.00
2014-7-18,75,65,63,60,55,54,89,65,56,29.74,29.65,10,1,10,0.00
2014-7-19,75,63,59,63,57,56,94,74,62,29.66,29.60,12,2,12,0.00
2014-7-20,79,67,58,63,57,56,96,68,50,29.70,29.62,8,1,8,0.00
2014-7-21,83,70,60,65,60,57,95,68,48,29.73,29.64,8,1,8,0.00
2014-7-22,88,74,65,70,64,62,96,68,50,29.72,29.63,9,1,9,0.00
2014-7-23,77,68,68,70,63,62,94,80,75,29.75,29.58,28,2,28,0.19
2014-7-24,76,65,57,63,55,50,84,67,52,29.69,29.63,15,4,15,0.00
2014-7-25,77,65,58,63,56,56,96,70,52,29.70,29.52,10,1,10,0.00
2014-7-26,89,73,61,75,66,59,94,75,61,29.61,29.49,17,2,17,0.00
2014-7-27,88,77,74,76,67,59,88,68,53,29.57,29.45,19,4,19,0.00
2014-7-28,78,67,65,62,55,55,75,60,54,29.70,29.57,21,4,21,0.00
2014-7-29,76,63,56,56,50,50,87,60,43,29.76,29.68,15,2,15,0.00
2014-7-30,76,63,54,60,53,51,93,67,49,29.74,29.67,10,1,10,0.00
2014-7-31,80,66,58,63,56,56,95,67,49,29.73,29.66,11,1,11,0.00
2014-8-1,83,69,63,67,58,57,93,66,45,29.70,29.63,8,1,8,0.00
2014-8-2,84,68,66,65,57,58,87,62,46,29.74,29.66,15,3,15,0.00
2014-8-3,84,70,65,65,58,58,87,61,43,29.76,29.65,12,2,12,0.00
2014-8-4,87,71,65,64,57,56,87,58,36,29.74,29.64,10,1,10,0.00
2014-8-5,86,70,62,70,60,58,93,68,49,29.70,29.60,13,1,13,0.01
2014-8-6,88,71,66,73,62,63,94,69,49,29.66,29.58,12,1,12,0.00
2014-8-7,84,65,69,71,60,65,96,74,60,29.63,29.51,12,2,20,0.13
2014-8-8,83,66,66,73,63,64,99,81,71,29.58,29.49,11,2,11,0.33
2014-8-9,84,69,70,73,65,69,100,79,64,29.61,29.52,13,2,13,0.00
2014-8-10,83,68,66,72,62,65,100,75,65,29.63,29.52,12,0,12,0.00
2014-8-11,82,70,70,72,65,67,97,77,63,29.56,29.47,18,2,18,0.37
2014-8-12,78,67,64,67,56,55,89,62,46,29.65,29.50,16,4,16,0.00
2014-8-13,78,63,56,59,51,53,92,60,43,29.72,29.63,15,1,15,0.00
2014-8-14,80,64,55,62,53,53,94,63,44,29.73,29.62,14,2,14,0.00
2014-8-15,81,66,59,65,57,57,94,67,48,29.69,29.59,8,1,9,0.00
2014-8-16,79,65,66,67,58,60,90,68,64,29.64,29.52,10,1,10,0.00
2014-8-17,83,68,68,74,62,65,98,73,64,29.54,29.43,17,3,17,0.06
2014-8-18,84,66,68,71,60,66,95,72,60,29.53,29.43,10,1,10,0.00
2014-8-19,88,70,68,74,66,66,100,80,61,29.50,29.40,22,1,22,0.10
2014-8-20,90,72,72,76,65,68,96,70,59,29.65,29.46,12,2,12,0.00
2014-8-21,90,75,70,73,65,67,94,67,50,29.70,29.59,16,2,16,0.00
2014-8-22,91,74,72,75,65,69,92,66,51,29.68,29.56,13,2,13,0.00
2014-8-23,88,73,72,77,68,70,94,76,66,29.62,29.51,17,1,17,0.30
2014-8-24,90,66,70,77,60,68,100,64,63,29.60,29.53,8,1,8,0.00
2014-8-25,90,76,72,75,68,70,96,72,54,29.67,29.58,9,1,9,0.00
2014-8-26,90,74,72,75,66,68,96,70,55,29.73,29.63,9,1,12,0.00
2014-8-27,90,71,70,74,64,68,95,68,53,29.73,29.61,9,1,9,0.00
2014-8-29,89,84,73,70,64,60,75,54,40,29.62,29.52,17,4,17,0.00
2014-8-30,78,65,69,71,61,65,96,78,72,29.65,29.59,13,2,13,0.22
2014-8-31,83,65,68,71,60,66,97,73,64,29.63,29.57,10,1,10,0.01
2014-9-1,84,70,70,72,63,68,95,71,62,29.62,29.49,28,3,28,0.00
2014-9-2,82,71,70,71,63,66,91,69,60,29.62,29.53,16,2,17,0.00
2014-9-3,84,69,66,70,60,63,95,68,52,29.67,29.57,8,1,9,0.00
2014-9-4,90,71,65,70,61,63,95,64,48,29.70,29.63,9,1,11,0.00
2014-9-5,89,67,67,72,62,65,97,75,57,29.74,29.59,25,1,25,0.75
2014-9-6,74,63,64,69,59,59,96,78,73,29.75,29.65,15,4,17,0.00
2014-9-7,77,61,61,62,52,56,89,62,51,29.76,29.66,14,3,16,0.00
2014-9-8,80,62,60,59,50,53,86,59,40,29.72,29.61,6,0,6,0.00
2014-9-9,86,66,56,67,56,54,94,63,51,29.68,29.51,9,1,9,0.00
2014-9-10,86,69,70,73,62,65,87,68,64,29.51,29.38,19,4,20,0.00
2014-9-11,72,54,57,68,51,54,96,77,86,29.77,29.48,20,4,20,0.50
2014-9-12,59,46,55,55,44,52,96,72,85,29.82,29.74,14,4,14,0.00
2014-9-13,63,48,49,52,39,43,88,58,50,29.95,29.81,15,4,21,0.00